This demonstration page uses our WeatherBlox Daily Observations layout. Learn more.

40.92945, -100.16068

Hourly Observations for May 28, 2016

Temp ( °F °C ) Dew Point ( °F °C ) Humidity (%) Winds ( mph kmh ) Pressure ( in mb ) Visibility ( mi km ) Precip ( " mm )
12:15 am 00:15 Cloudy with Light Rain 58 14.3 55 12.6 90 90 NNE 13 20 29.71 1006 10 16.0934 0.01 0.254
12:35 am 00:35 Cloudy 58 14.3 55 13 92 92 NE 16 26 29.71 1006 7 11.26538 0.05 1.27
12:55 am 00:55 Cloudy with Rain 58 14.3 55 13 92 92 ENE 23 37 29.71 1006 5 8.0467 0.12 3.048
1:15 am 01:15 Cloudy with Rain 57 13.9 54 12.2 90 90 NE 18 30 29.77 1008 5 8.0467 0.11 2.794
1:35 am 01:35 Cloudy with Heavy Rain 56 13.5 54 12 91 91 ENE 12 19 29.77 1008 5 8.0467 0.24 6.096
1:55 am 01:55 Cloudy with Rain 56 13.1 53 11.6 91 91 E 16 26 29.77 1008 4 6.43736 0.39 9.906
2:15 am 02:15 Cloudy with Rain 55 12.8 53 11.6 92 92 ENE 9 15 29.77 1008 5 8.0467 0.1 2.54
2:35 am 02:35 Cloudy with Light Rain 55 12.7 53 11.5 92 92 ENE 7 11 29.77 1008 10 16.0934 0.11 2.794
2:55 am 02:55 Cloudy with Light Rain 55 12.6 53 11.5 93 93 Calm 29.77 1008 10 16.0934 0.12 3.048
3:15 am 03:15 Cloudy with Light Rain 55 12.6 53 11.5 93 93 Calm 29.77 1008 10 16.0934 N/A
3:35 am 03:35 Cloudy with Light Drizzle 55 12.7 53 11.6 93 93 N 5 7 29.77 1008 10 16.0934 N/A
3:55 am 03:55 Cloudy 55 12.7 53 11.6 93 93 NNW 5 7 29.77 1008 10 16.0934 0 0
4:15 am 04:15 Cloudy 55 12.8 53 11.7 93 93 NW 6 9 29.77 1008 10 16.0934 N/A
4:35 am 04:35 Cloudy 55 12.7 53 11.6 93 93 NW 5 7 29.77 1008 10 16.0934 N/A
4:55 am 04:55 Cloudy 55 12.8 53 11.8 94 94 WNW 6 9 29.77 1008 10 16.0934 N/A
5:15 am 05:15 Cloudy 55 12.8 53 11.7 93 93 W 5 7 29.77 1008 10 16.0934 N/A
5:35 am 05:35 Cloudy 55 12.8 53 11.7 93 93 WNW 8 13 29.77 1008 10 16.0934 N/A
5:55 am 05:55 Cloudy 55 13 53 11.8 92 92 NW 7 11 29.8 1009 10 16.0934 N/A
6:15 am 06:15 Mostly Cloudy 55 13 53 11.8 92 92 NW 9 15 29.8 1009 10 16.0934 N/A
6:35 am 06:35 Cloudy 56 13.1 54 12 93 93 WNW 8 13 29.8 1009 10 16.0934 N/A
6:55 am 06:55 Cloudy 56 13.1 53 11.9 93 93 WNW 8 13 29.8 1009 10 16.0934 0 0
7:15 am 07:15 Cloudy 56 13.3 53 11.8 91 91 WNW 9 15 29.8 1009 10 16.0934 N/A
7:35 am 07:35 Mostly Cloudy 56 13.2 53 11.5 90 90 W 12 19 29.83 1010 10 16.0934 N/A
7:55 am 07:55 Partly Cloudy 56 13.1 52 11.3 89 89 W 8 13 29.83 1010 10 16.0934 N/A
8:15 am 08:15 Sunny 56 13.3 53 11.6 90 90 WNW 10 17 29.83 1010 10 16.0934 N/A
8:35 am 08:35 Sunny 58 14.5 55 12.6 88 88 WNW 14 22 29.83 1010 10 16.0934 0.01 0.254
8:55 am 08:55 Sunny 60 15.5 55 13 85 85 WNW 15 24 29.83 1010 10 16.0934 0.01 0.254
9:15 am 09:15 Sunny 61 16.3 56 13.5 84 84 WNW 14 22 29.83 1010 10 16.0934 N/A
9:35 am 09:35 Sunny 62 16.9 57 13.8 82 82 NW 16 26 29.83 1010 10 16.0934 N/A
9:55 am 09:55 Sunny 63 17.3 56 13.5 79 79 NW 12 19 29.83 1010 10 16.0934 0 0
10:15 am 10:15 Sunny 64 18 56 13.4 75 75 WNW 12 19 29.83 1010 10 16.0934 N/A
10:35 am 10:35 Partly Cloudy 65 18.1 56 13.3 74 74 NW 14 22 29.85 1011 10 16.0934 N/A
10:55 am 10:55 Partly Cloudy 65 18.6 56 13.3 71 71 WNW 12 19 29.85 1011 10 16.0934 N/A
11:15 am 11:15 Partly Cloudy 65 18.4 56 13.1 71 71 W 9 15 29.85 1011 10 16.0934 N/A
11:35 am 11:35 Partly Cloudy 66 18.9 55 13 69 69 WNW 8 13 29.85 1011 10 16.0934 N/A
11:55 am 11:55 Partly Cloudy 68 19.8 57 13.9 69 69 NW 8 13 29.83 1010 10 16.0934 N/A
12:15 pm 12:15 Sunny 69 20.5 56 13.5 64 64 NNW 13 20 29.83 1010 10 16.0934 N/A
12:35 pm 12:35 Partly Cloudy 69 20.4 56 13.1 63 63 NW 10 17 29.83 1010 10 16.0934 N/A
12:55 pm 12:55 Partly Cloudy 69 20.5 55 12.6 61 61 NW 12 19 29.83 1010 10 16.0934 0 0
1:15 pm 13:15 Partly Cloudy 70 21.2 56 13.1 60 60 NW 9 15 29.83 1010 10 16.0934 N/A
1:35 pm 13:35 Partly Cloudy 71 21.6 54 12.4 56 56 WNW 9 15 29.83 1010 10 16.0934 N/A
1:55 pm 13:55 Mostly Cloudy 70 20.9 56 13.3 62 62 WNW 7 11 29.83 1010 10 16.0934 N/A
2:15 pm 14:15 Cloudy 69 20.8 54 12 57 57 WNW 7 11 29.83 1010 10 16.0934 N/A
2:35 pm 14:35 Cloudy 69 20.5 55 12.8 61 61 NNW 7 11 29.83 1010 10 16.0934 N/A
2:55 pm 14:55 Mostly Cloudy 71 21.7 55 13 58 58 WNW 7 11 29.83 1010 10 16.0934 N/A
3:15 pm 15:15 Mostly Cloudy 71 21.7 54 12.1 55 55 WNW 7 11 29.83 1010 10 16.0934 N/A
3:35 pm 15:35 Partly Cloudy 72 22.4 53 11.5 50 50 WNW 8 13 29.83 1010 10 16.0934 N/A
3:55 pm 15:55 Partly Cloudy 72 22.2 53 11.6 51 51 WNW 8 13 29.83 1010 10 16.0934 N/A
4:15 pm 16:15 Partly Cloudy 74 23.2 54 12 49 49 W 13 20 29.8 1009 10 16.0934 N/A
4:35 pm 16:35 Partly Cloudy 73 22.7 53 11.8 50 50 WNW 6 9 29.8 1009 10 16.0934 N/A
4:55 pm 16:55 Partly Cloudy 73 23 53 11.7 49 49 W 7 11 29.8 1009 10 16.0934 N/A
5:15 pm 17:15 Partly Cloudy 74 23.2 52 11.3 47 47 SW 5 7 29.8 1009 10 16.0934 N/A
5:35 pm 17:35 Partly Cloudy 75 23.7 54 12.1 48 48 NW 7 11 29.8 1009 10 16.0934 N/A
5:55 pm 17:55 Partly Cloudy 73 22.6 54 12.2 52 52 W 7 11 29.8 1009 10 16.0934 N/A
6:15 pm 18:15 Partly Cloudy 74 23.6 52 11.1 45 45 WNW 5 7 29.8 1009 10 16.0934 N/A
6:35 pm 18:35 Partly Cloudy 74 23.3 51 10.8 45 45 W 8 13 29.8 1009 10 16.0934 N/A
6:55 pm 18:55 Sunny 74 23.3 53 11.4 47 47 W 6 9 29.8 1009 10 16.0934 N/A
7:15 pm 19:15 Sunny 73 23 53 11.9 50 50 W 8 13 29.83 1010 10 16.0934 N/A
7:35 pm 19:35 Sunny 73 23 55 13 53 53 W 5 7 29.83 1010 10 16.0934 N/A
7:55 pm 19:55 Sunny 73 22.5 55 12.5 53 53 Calm 29.85 1011 10 16.0934 N/A
8:15 pm 20:15 Sunny 73 22.5 55 13 55 55 Calm 29.85 1011 10 16.0934 N/A
8:35 pm 20:35 Sunny 71 21.5 54 12.4 56 56 SSW 3 6 29.85 1011 10 16.0934 N/A
8:55 pm 20:55 Sunny 67 19.7 56 13.2 66 66 Calm 29.88 1012 7 11.26538 N/A
9:15 pm 21:15 Partly Cloudy 67 19.4 56 13.6 69 69 S 3 6 29.91 1013 10 16.0934 N/A
9:35 pm 21:35 Partly Cloudy 67 19.4 56 13.4 68 68 S 3 6 29.91 1013 10 16.0934 N/A
9:55 pm 21:55 Clear 64 18 56 13.4 75 75 S 3 6 29.94 1014 10 16.0934 N/A
10:15 pm 22:15 Clear 64 17.6 56 13.5 77 77 Calm 29.94 1014 10 16.0934 N/A
10:35 pm 22:35 Mostly Cloudy 63 17.4 55 12.5 73 73 N 13 20 29.97 1015 10 16.0934 N/A
10:55 pm 22:55 Partly Cloudy 63 17 51 10.4 65 65 N 17 28 29.97 1015 10 16.0934 N/A
11:15 pm 23:15 Clear 61 16 49 9.3 65 65 NNE 10 17 30 1016 10 16.0934 N/A
11:35 pm 23:35 Clear 59 14.9 50 10 73 73 NNW 5 7 30 1016 10 16.0934 N/A
11:55 pm 23:55 Mostly Cloudy 59 15.1 51 10.7 75 75 WNW 9 15 30 1016 10 16.0934 N/A

Powered by AerisWeather